Regional Weather Roundup
Issued by NWS Goodland, KS

Home | Current Version | Previous Version | Text Only | Print | Product List | Glossary Off
Versions: 1 2 3 4 5 6 7 8 9 10 11 12 13 14 15 16 17 18 19 20 21 22 23 24 25 26 27 28 29 30 31 32 33 34 35 36 37 38 39 40 41 42 43 44 45 46 47 48 49 50

948
ASUS43 KGLD 242308
RWRGLD

GOODLAND FORECAST AREA HOURLY WEATHER ROUNDUP
NATIONAL WEATHER SERVICE GOODLAND KS
400 PM MST TUE JAN 24 2017

...OFFICIAL OBSERVATIONS...

CITY           SKY/WX    TMP DP  RH WIND       PRES   REMARKS
GOODLAND KS    CLOUDY    28  22  78 N26G36    29.58R WCI  13
HILL CITY KS   CLOUDY    36  31  82 N15       29.55R
IMPERIAL NEB   CLOUDY    27  20  75 NW30G38   29.60R WCI  11
MCCOOK NEB     CLOUDY    32  27  81 NW23      29.56R WCI  19
AKRON CO       CLOUDY    22  15  75 N23G32    29.64R WCI   6
BURLINGTON CO  CLOUDY    27  21  78 N24G35    29.61R WCI  12
LIMON CO       CLOUDY    23  19  85 N21G29    29.62R WCI   8
$$

...UNOFFICIAL OBSERVATIONS...

CITY           SKY/WX    TMP DP  RH WIND       PRES   REMARKS
LENORA KS        N/A     33  32  96 N8          N/A
NORTON KS      CLOUDY    34  27  75 NW9       29.53R
SHARON SPRINGS   N/A     30  25  81 NW23G32     N/A  WCI  17
TRENTON NEB      N/A     29  32 100 NW16        N/A  WCI  17
KIT CARSON CO    N/A     28  20  72 MISG        N/A
$$




USA.gov is the U.S. government's official web portal to all federal, state and local government web resources and services.